Terminal Aerodrome Forecast
Issued by NWS Wilmington, OH

Current Version | Previous Version | Text Only | Print | Product List | Glossary Off
Versions: 1 2 3 4 5 6 7 8 9 10 11 12 13 14 15 16 17 18 19 20 21

000
FTUS41 KILN 021400 AAA
TAFCVG
TAF AMD
KCVG 021457Z 0215/0318 00000KT P6SM BKN200
     FM021800 25006KT P6SM SCT080
     FM030000 21003KT P6SM FEW200
     FM031400 21009KT P6SM SCT050=

USA.gov is the U.S. government's official web portal to all federal, state and local government web resources and services.